[[{"header":{"parameterUnit":"m.s-1","parameterCategory":1,"la1":30.2991,"la2":30.254,"lo1":-89.0895,"lo2":-89.0444,"dy":0.0017,"dx":0.0017,"nx":28,"ny":28,"refTime":"2025-08-16T09:00:00:Z","depth":0,"parameterNumber":2,"parameterNumberName":"U-component_of_WINDS"},"data":[0,0,0,0,0,0,0,0,0,0,0,0,0,0,0,0,0,0,0,0,0,0,0,0,0,0,0,0,0,0,0,0,0,0,0,0,0,0,0,0,0,0,0,0,0,0,0,0,0,0,0,0,0,0,0,0,0,0,-0.2012,-0.2011,0,-0.1959,-0.1958,-0.1957,-0.1963,-0.1964,-0.1965,-0.1966,-0.1909,-0.1907,-0.1905,0,0,0,0,0,0,0,0,0,0,0,0,0,-0.2116,-0.2114,-0.2012,-0.2011,-0.2011,-0.1959,-0.1958,-0.1957,-0.1963,-0.1964,-0.1965,-0.1966,-0.191,-0.1907,-0.1904,0,0,0,0,0,0,0,0,0,0,0,0,0,-0.2067,-0.2113,-0.2012,-0.2007,-0.2006,-0.1959,-0.1958,-0.1957,-0.1963,-0.1964,-0.1965,-0.1966,-0.1911,-0.1908,-0.1904,-0.1858,0,0,-0.1894,-0.1892,0,0,0,0,0,0,0,0,-0.207,-0.2064,-0.2009,-0.2007,-0.2006,-0.1969,-0.1974,-0.1924,-0.1962,-0.1979,-0.1966,-0.1967,-0.1928,-0.1923,-0.191,-0.1855,-0.1853,-0.1893,-0.1891,-0.189,-0.1889,0,0,0,0,0,0,0,-0.2074,-0.2066,-0.1991,-0.2008,-0.2006,-0.2007,-0.2001,-0.1965,-0.1947,-0.1978,-0.1978,-0.1972,-0.1927,-0.1914,-0.1909,-0.1852,-0.1893,-0.189,-0.1888,-0.1887,-0.1754,-0.1753,0,0,0,0,0,0,-0.2078,-0.2069,-0.1993,-0.1989,-0.2042,-0.2004,-0.1998,-0.198,-0.1947,-0.1944,-0.1971,-0.1972,-0.1919,-0.1913,-0.1907,-0.185,-0.189,-0.1887,-0.1885,-0.1756,-0.1754,-0.1752,0,0,0,0,0,0,-0.2081,-0.2072,-0.1995,-0.2029,-0.2019,-0.2001,-0.198,-0.1978,-0.1964,-0.1942,-0.1939,-0.196,-0.192,-0.1912,-0.187,-0.1848,-0.1885,-0.1882,-0.1757,-0.1755,-0.1753,-0.1735,0,0,0,0,0,0,-0.2084,-0.2072,-0.2055,-0.2029,-0.2017,-0.1959,-0.1979,-0.1976,-0.1958,-0.196,-0.1931,-0.1928,-0.192,-0.1875,-0.1866,-0.1844,-0.1879,-0.1759,-0.1756,-0.1754,-0.1737,-0.1732,-0.1728,0,0,0,0,0,-0.2087,-0.2052,-0.2054,-0.2045,-0.1996,-0.1958,-0.1951,-0.1944,-0.1957,-0.1939,-0.1924,-0.1929,-0.1852,-0.187,-0.1861,-0.1837,-0.1761,-0.1757,-0.1754,-0.1739,-0.1733,-0.1728,0,0,0,0,0,0,-0.2076,-0.2049,-0.2051,-0.2006,-0.1984,-0.1959,-0.1936,-0.1938,-0.1911,-0.1914,-0.1905,-0.1898,-0.1855,-0.1842,-0.1864,-0.179,-0.1808,-0.1802,-0.18,-0.1794,-0.1789,-0.1793,-0.1876,0,0,0,0,0,-0.2068,-0.2041,-0.2018,-0.198,-0.1969,-0.1955,-0.1938,-0.1934,-0.1911,-0.1901,-0.1884,-0.1861,-0.1831,-0.1812,-0.1784,-0.1736,-0.1729,-0.1714,-0.171,-0.1706,-0.1701,-0.1673,-0.1666,-0.1741,-0.1741,-0.1742,0,0,-0.2052,-0.2034,-0.2017,-0.1978,-0.196,-0.1931,-0.1947,-0.1915,-0.1893,-0.1896,-0.1855,-0.1842,-0.1815,-0.1769,-0.1748,-0.1757,-0.1679,-0.1702,-0.1699,-0.1696,-0.1669,-0.1662,-0.1656,-0.1739,-0.174,-0.174,0,0,-0.2007,-0.1991,-0.1958,-0.194,-0.1914,-0.1904,-0.1896,-0.187,-0.1861,-0.182,-0.1822,-0.1794,-0.1744,-0.1725,-0.1708,-0.1655,-0.1657,-0.1646,-0.1621,-0.1594,-0.1588,-0.1583,-0.1563,-0.1556,-0.1642,-0.1642,-0.1641,0,-0.1991,-0.1947,-0.194,-0.1908,-0.189,-0.1892,-0.1858,-0.1841,-0.1806,-0.1793,-0.1804,-0.174,-0.1722,-0.1671,-0.1658,-0.1645,-0.1635,-0.1649,-0.159,-0.1585,-0.1579,-0.156,-0.1553,-0.164,-0.164,-0.1641,-0.1641,0,-0.1926,-0.1896,-0.1872,-0.1839,-0.1818,-0.1785,-0.1773,-0.1753,-0.175,-0.1739,-0.1696,-0.1675,-0.1642,-0.163,-0.1627,-0.1578,-0.1584,-0.1592,-0.161,-0.1571,-0.1553,-0.1545,-0.1638,-0.1639,-0.1639,-0.164,0,0,-0.1873,-0.1837,-0.1828,-0.1812,-0.1783,-0.1759,-0.1725,-0.1693,-0.1675,-0.1651,-0.1622,-0.1579,-0.1586,-0.1567,-0.1562,-0.1539,-0.1496,-0.155,-0.1549,-0.1539,-0.1439,-0.1433,-0.1424,-0.1498,-0.1497,-0.1496,-0.1441,0,-0.1825,-0.1766,-0.1758,-0.1705,-0.1676,-0.1678,-0.1648,-0.1626,-0.1615,-0.1588,-0.1575,-0.1544,-0.1556,-0.1545,-0.1522,-0.1507,-0.1476,-0.151,-0.1469,-0.1468,-0.1475,-0.1415,-0.1408,-0.1358,-0.1434,-0.1433,-0.1432,0,-0.176,-0.1734,-0.1679,-0.1652,-0.164,-0.1614,-0.1583,-0.1558,-0.1532,-0.1526,-0.1504,-0.1502,-0.1466,-0.1486,-0.1435,-0.1459,-0.1442,-0.1432,-0.1429,-0.1425,-0.1447,-0.1408,-0.1342,-0.1334,-0.1421,-0.1422,-0.1423,0,-0.1725,-0.1677,-0.1637,-0.1624,-0.1592,-0.1574,-0.1559,-0.1536,-0.1517,-0.149,-0.1477,-0.1446,-0.1429,-0.1405,-0.1394,-0.1409,-0.1343,-0.1363,-0.1335,-0.1336,-0.1321,-0.1322,-0.1251,-0.1311,-0.1311,-0.1312,-0.1312,0,-0.1672,-0.1637,-0.1621,-0.1596,-0.1557,-0.1549,-0.151,-0.1497,-0.1475,-0.1447,-0.1446,-0.142,-0.1408,-0.1379,-0.137,-0.1329,-0.1321,-0.1314,-0.1312,-0.1313,-0.1314,-0.1302,-0.1304,-0.131,-0.131,-0.131,-0.1311,0,-0.1626,-0.1614,-0.157,-0.1544,-0.1537,-0.1509,-0.1486,-0.1461,-0.145,-0.1414,-0.1405,-0.1387,-0.1353,-0.134,-0.1299,-0.1293,-0.1245,-0.1246,-0.1253,-0.1253,-0.1226,-0.1228,-0.1143,-0.1131,-0.1201,-0.12,-0.1199,0,-0.1592,-0.1566,-0.1536,-0.1518,-0.1503,-0.1473,-0.1454,-0.1444,-0.1423,-0.1392,-0.1371,-0.1338,-0.131,-0.1255,-0.1238,-0.1206,-0.1206,-0.1178,-0.1201,-0.1203,-0.1204,-0.1205,-0.1202,-0.1174,-0.1173,-0.1172,-0.1172,0,-0.1533,-0.1528,-0.15,-0.147,-0.1446,-0.1422,-0.1398,-0.1383,-0.1369,-0.1346,-0.1311,-0.129,-0.1248,-0.1214,-0.118,-0.1165,-0.1165,-0.1165,-0.1157,-0.1158,-0.1163,-0.1159,-0.1241,-0.1167,-0.1167,-0.1168,-0.1168,-0.1168,-0.1491,-0.1467,-0.1443,-0.1411,-0.1393,-0.137,-0.1345,-0.1331,-0.1302,-0.1267,-0.1263,-0.1225,-0.12,-0.1155,-0.1138,-0.1108,-0.1115,-0.1104,-0.1101,-0.1098,-0.1096,-0.1168,-0.1102,-0.1102,-0.1103,-0.1103,-0.1103,0,-0.1431,-0.1415,-0.1386,-0.1353,-0.1328,-0.1332,-0.1305,-0.1284,-0.1251,-0.1227,-0.12,-0.116,-0.1127,-0.1106,-0.1073,-0.1052,-0.1052,-0.1044,-0.1045,-0.1041,-0.1092,-0.1102,-0.1045,-0.1045,-0.1045,-0.1045,-0.1045,-0.1045,-0.1396,-0.1356,-0.1348,-0.1297,-0.1282,-0.1245,-0.123,-0.1209,-0.1189,-0.1145,-0.1117,-0.1104,-0.1082,-0.1046,-0.1015,-0.101,-0.0997,-0.0989,-0.0984,-0.1031,-0.1037,-0.1043,-0.1052,-0.0986,-0.0986,-0.0936,-0.0935,-0.0935]},{"header":{"parameterUnit":"m.s-1","parameterCategory":1,"la1":30.2991,"la2":30.254,"lo1":-89.0895,"lo2":-89.0444,"dy":0.0017,"dx":0.0017,"nx":28,"ny":28,"refTime":"2025-08-16T09:00:00:Z","depth":0,"parameterNumber":3,"parameterNumberName":"V-component_of_WINDS"},"data":[0,0,0,0,0,0,0,0,0,0,0,0,0,0,0,0,0,0,0,0,0,0,0,0,0,0,0,0,0,0,0,0,0,0,0,0,0,0,0,0,0,0,0,0,0,0,0,0,0,0,0,0,0,0,0,0,0,0,-2.5933,-2.5933,0,-2.589,-2.589,-2.5889,-2.5856,-2.5856,-2.5855,-2.5855,-2.5807,-2.5806,-2.5805,0,0,0,0,0,0,0,0,0,0,0,0,0,-2.5985,-2.5985,-2.5933,-2.5933,-2.5932,-2.589,-2.589,-2.5889,-2.5856,-2.5856,-2.5855,-2.5855,-2.5808,-2.5806,-2.5805,0,0,0,0,0,0,0,0,0,0,0,0,0,-2.5954,-2.5984,-2.5933,-2.5911,-2.5908,-2.589,-2.589,-2.5889,-2.5856,-2.5856,-2.5855,-2.5855,-2.5808,-2.5807,-2.5805,-2.5805,0,0,-2.5801,-2.58,0,0,0,0,0,0,0,0,-2.5956,-2.5953,-2.5915,-2.5912,-2.5909,-2.5878,-2.589,-2.5861,-2.5856,-2.5876,-2.5855,-2.5854,-2.5831,-2.5828,-2.582,-2.5803,-2.5801,-2.58,-2.58,-2.5799,-2.5799,0,0,0,0,0,0,0,-2.5958,-2.5954,-2.5916,-2.5914,-2.5911,-2.5902,-2.5897,-2.5885,-2.5856,-2.5874,-2.5871,-2.5867,-2.5829,-2.5822,-2.5819,-2.58,-2.5801,-2.5799,-2.5798,-2.5798,-2.5783,-2.5784,0,0,0,0,0,0,-2.5964,-2.5956,-2.5917,-2.5915,-2.5932,-2.5902,-2.5896,-2.5889,-2.5856,-2.5851,-2.5867,-2.5866,-2.5825,-2.5821,-2.5817,-2.5817,-2.5799,-2.5798,-2.5797,-2.5783,-2.5784,-2.5784,0,0,0,0,0,0,-2.5966,-2.5961,-2.5919,-2.5935,-2.5929,-2.5901,-2.5893,-2.5888,-2.588,-2.5852,-2.5846,-2.5865,-2.5824,-2.5819,-2.5809,-2.5815,-2.5797,-2.5796,-2.5782,-2.5783,-2.5784,-2.5816,0,0,0,0,0,0,-2.5967,-2.5962,-2.5962,-2.5935,-2.5928,-2.5913,-2.5893,-2.5887,-2.5878,-2.5876,-2.5848,-2.5843,-2.5823,-2.5812,-2.5808,-2.5812,-2.5794,-2.5782,-2.5783,-2.5784,-2.5814,-2.5817,-2.582,0,0,0,0,0,-2.5969,-2.5971,-2.5962,-2.5958,-2.5928,-2.5913,-2.5909,-2.5887,-2.5879,-2.5879,-2.5861,-2.5844,-2.5815,-2.5811,-2.5806,-2.5811,-2.5781,-2.5782,-2.5784,-2.5812,-2.5817,-2.582,0,0,0,0,0,0,-2.5997,-2.5967,-2.5957,-2.595,-2.5935,-2.5907,-2.5906,-2.5892,-2.5878,-2.5875,-2.5849,-2.5843,-2.5836,-2.5822,-2.5818,-2.581,-2.5796,-2.5796,-2.582,-2.5823,-2.5827,-2.583,-2.5793,0,0,0,0,0,-2.6003,-2.5994,-2.5968,-2.5965,-2.5958,-2.5934,-2.5926,-2.5912,-2.5894,-2.5887,-2.5868,-2.585,-2.5838,-2.583,-2.5816,-2.5812,-2.5806,-2.5813,-2.5816,-2.5819,-2.5819,-2.5818,-2.5821,-2.5788,-2.5788,-2.5788,0,0,-2.6014,-2.5996,-2.5992,-2.597,-2.5956,-2.5948,-2.5928,-2.5919,-2.5913,-2.5885,-2.5875,-2.5861,-2.584,-2.5834,-2.583,-2.5822,-2.5828,-2.582,-2.5823,-2.5822,-2.582,-2.5823,-2.5826,-2.5789,-2.5788,-2.5788,0,0,-2.603,-2.6015,-2.6012,-2.6,-2.598,-2.5964,-2.5964,-2.5939,-2.5929,-2.592,-2.5899,-2.5891,-2.5869,-2.5856,-2.5846,-2.5861,-2.5845,-2.5857,-2.5873,-2.5873,-2.5876,-2.5878,-2.5884,-2.5887,-2.5858,-2.5858,-2.5858,0,-2.6045,-2.6033,-2.6012,-2.6005,-2.5997,-2.5974,-2.597,-2.5959,-2.5935,-2.593,-2.5921,-2.5896,-2.588,-2.5871,-2.5875,-2.5868,-2.5867,-2.586,-2.5877,-2.5879,-2.5881,-2.5887,-2.5889,-2.5859,-2.5859,-2.5859,-2.5859,0,-2.6054,-2.6046,-2.6045,-2.6026,-2.6017,-2.6012,-2.5991,-2.5984,-2.5971,-2.5957,-2.5948,-2.5928,-2.5912,-2.5909,-2.5894,-2.5899,-2.5895,-2.5882,-2.5867,-2.5886,-2.5891,-2.5893,-2.5862,-2.5861,-2.5861,-2.586,0,0,-2.6084,-2.6056,-2.6056,-2.6048,-2.6026,-2.6019,-2.6013,-2.5999,-2.5995,-2.598,-2.5975,-2.5959,-2.5948,-2.5937,-2.5922,-2.5921,-2.5937,-2.5909,-2.5908,-2.5916,-2.5942,-2.5952,-2.5955,-2.5926,-2.5927,-2.5927,-2.5944,0,-2.6097,-2.6088,-2.607,-2.6066,-2.6059,-2.6038,-2.6034,-2.602,-2.6007,-2.5999,-2.5984,-2.5973,-2.5959,-2.5953,-2.5951,-2.5935,-2.5942,-2.5933,-2.5922,-2.5922,-2.5929,-2.5958,-2.5968,-2.5985,-2.5946,-2.5946,-2.5947,0,-2.6111,-2.61,-2.6096,-2.6077,-2.6073,-2.607,-2.6057,-2.6049,-2.6033,-2.6024,-2.6014,-2.5998,-2.5992,-2.5979,-2.597,-2.5965,-2.596,-2.5952,-2.5952,-2.595,-2.5936,-2.5958,-2.599,-2.5993,-2.5949,-2.5949,-2.5949,0,-2.6136,-2.6119,-2.6116,-2.6109,-2.6086,-2.6085,-2.6075,-2.6059,-2.6053,-2.6041,-2.6037,-2.6024,-2.6017,-2.6007,-2.5989,-2.598,-2.5983,-2.5968,-2.5976,-2.5976,-2.5977,-2.5977,-2.6009,-2.5972,-2.5972,-2.5972,-2.5972,0,-2.6152,-2.6151,-2.6127,-2.6124,-2.6123,-2.6103,-2.6102,-2.609,-2.6077,-2.6072,-2.6052,-2.6048,-2.6023,-2.6017,-2.6002,-2.5998,-2.5995,-2.5987,-2.5984,-2.599,-2.5991,-2.5986,-2.5984,-2.5973,-2.5973,-2.5973,-2.5972,0,-2.6179,-2.6162,-2.6157,-2.6138,-2.6133,-2.6133,-2.6115,-2.6113,-2.61,-2.6094,-2.6091,-2.607,-2.6062,-2.6042,-2.6027,-2.6018,-2.6018,-2.6011,-2.6024,-2.6022,-2.6031,-2.6031,-2.6062,-2.6066,-2.6026,-2.6026,-2.6026,0,-2.6191,-2.619,-2.6171,-2.6167,-2.6159,-2.6153,-2.6147,-2.6128,-2.6122,-2.6107,-2.6106,-2.6096,-2.6087,-2.6074,-2.6058,-2.6047,-2.604,-2.6051,-2.6038,-2.6045,-2.6041,-2.6042,-2.6043,-2.6054,-2.6055,-2.6055,-2.6055,0,-2.6214,-2.6207,-2.62,-2.6191,-2.6185,-2.6176,-2.6166,-2.6164,-2.6143,-2.6138,-2.613,-2.6123,-2.611,-2.6101,-2.6088,-2.6078,-2.6064,-2.606,-2.6062,-2.6068,-2.6076,-2.6074,-2.6033,-2.6059,-2.6059,-2.6059,-2.6058,-2.6058,-2.6235,-2.6234,-2.6221,-2.6215,-2.6206,-2.6198,-2.6196,-2.6183,-2.6177,-2.6165,-2.6155,-2.6148,-2.6135,-2.6117,-2.6108,-2.6103,-2.6095,-2.6097,-2.6097,-2.6098,-2.6102,-2.6077,-2.61,-2.61,-2.61,-2.61,-2.61,0,-2.6258,-2.625,-2.6244,-2.6233,-2.6228,-2.6217,-2.6206,-2.6203,-2.6198,-2.6187,-2.618,-2.6172,-2.6164,-2.6148,-2.6138,-2.6137,-2.6131,-2.6136,-2.6136,-2.6134,-2.6108,-2.6109,-2.6141,-2.6141,-2.6141,-2.6141,-2.6141,-2.6141,-2.627,-2.6269,-2.6261,-2.6255,-2.6247,-2.6242,-2.6237,-2.623,-2.6222,-2.6214,-2.6208,-2.6199,-2.6186,-2.6176,-2.6169,-2.6164,-2.6162,-2.617,-2.6163,-2.6139,-2.6135,-2.6132,-2.6132,-2.6169,-2.6169,-2.6189,-2.619,-2.619]}]]